[Iaude] MPEC U27: 2016 UH [a=2.54,e=0.60,i=5.1,H=25.3]

mpec at si.edu mpec at si.edu
Thu Oct 20 20:33:45 EDT 2016


M.P.E.C. 2016-U27                                Issued 2016 Oct. 21, 00:29 UT
 
     The Minor Planet Electronic Circulars contain information on unusual
         minor planets and routine data on comets.  They are published
    on behalf of Division F of the International Astronomical Union by the
          Minor Planet Center, Smithsonian Astrophysical Observatory,
                          Cambridge, MA 02138, U.S.A.

             Prepared using the Tamkin Foundation Computer Network

                              MPC at CFA.HARVARD.EDU
            URL http://www.minorplanetcenter.net/    ISSN 1523-6714


                                    2016 UH
 
Observations:
     K16U00H* C2016 10 19.26511 01 44 53.71 +26 19 30.9          20.3 VqEU027G96
     K16U00H  C2016 10 19.26945 01 44 57.58 +26 19 35.9          19.6 VqEU027G96
     K16U00H  C2016 10 19.27373 01 45 01.50 +26 19 40.9          19.9 VqEU027G96
     K16U00H  C2016 10 19.27803 01 45 05.31 +26 19 45.4          20.0 VqEU027G96
     K16U00H  C2016 10 19.33414 01 45 55.88 +26 20 45.9          20.2 VqEU027G96
     K16U00H  C2016 10 19.33459 01 45 56.32 +26 20 47.7                qEU027G96
     K16U00H  C2016 10 19.33501 01 45 56.70 +26 20 47.1          20.5 VqEU027G96
     K16U00H  C2016 10 19.33543 01 45 57.03 +26 20 47.8          20.1 VqEU027G96
     K16U00H KC2016 10 20.05239 01 57 48.19 +26 31 12.1                qEU027J95
     K16U00H KC2016 10 20.05968 01 57 55.41 +26 31 17.9                qEU027J95
     K16U00H KC2016 10 20.07117 01 58 06.77 +26 31 25.0          20.5 RqEU027J95
     K16U00H  C2016 10 20.32749 02 02 35.43 +26 35 22.8          20.0 RoEU027926
     K16U00H  C2016 10 20.32992 02 02 37.85 +26 35 24.1          19.8 RoEU027926
     K16U00H  C2016 10 20.33234 02 02 40.28 +26 35 26.1          19.9 RoEU027926
     K16U00H  C2016 10 20.34030 02 02 48.18 +26 35 27.9          20.3 VqEU027G96
     K16U00H  C2016 10 20.34076 02 02 48.60 +26 35 28.5                qEU027G96
     K16U00H  C2016 10 20.34121 02 02 49.14 +26 35 28.8          19.9 VqEU027G96
     K16U00H  C2016 10 20.34166 02 02 49.57 +26 35 29.2          20.5 VqEU027G96
     K16U00H KC2016 10 20.94187 02 13 45.20 +26 39 45.6                qEU027J95
     K16U00H KC2016 10 20.94928 02 13 53.15 +26 39 49.6                qEU027J95
     K16U00H KC2016 10 20.95804 02 14 02.55 +26 39 53.7          20.3 RqEU027J95
 
Observer details:
926 Tenagra II Observatory.  Observers M. Schwartz, P. R. Holvorcem.  Measurer
    M. Schwartz.  0.81-m f/7 Ritchey-Chretien + CCD.
G96 Mt. Lemmon Survey.  Observer R. A. Kowalski.  Measurers E. J. Christensen,
    D. C. Fuls, A. R. Gibbs, A. D. Grauer, J. A. Johnson, R. A. Kowalski,
    S. M. Larson, G. J. Leonard, R. G. Matheny, R. L. Seaman, F. C. Shelly.
    1.5-m reflector + 10K CCD.
J95 Great Shefford.  Observer P. Birtwhistle.  0.40-m f/6.0 Schmidt-Cassegrain
    + CCD.
 
Orbital elements:
2016 UH                                                  Earth MOID = 0.0349 AU
Epoch 2016 July 31.0 TT = JDT 2457600.5                 MPC
M 335.34322              (2000.0)            P               Q
n   0.24411295     Peri.  194.69672     +0.63101920     -0.77397260
a   2.5355694      Node   216.22209     +0.72045574     +0.60988158
e   0.5968981      Incl.    5.12023     +0.28767744     +0.17032579
P   4.04           H   25.3           G   0.15           U   7
Residuals in seconds of arc
161019 G96  0.2-  0.2-    161019 G96  0.3-  0.4+    161020 G96  0.6-  0.3-
161019 G96  0.6-  0.2-    161020 J95  0.0   0.2-    161020 G96  1.1-  0.0
161019 G96  0.4+  0.1-    161020 J95  0.3+  0.5+    161020 G96  0.1+  0.0
161019 G96  0.3-  0.6-    161020 J95  0.1+  0.4-    161020 G96  0.2-  0.1+
161019 G96  0.1-  0.2-    161020 926  0.2-  0.0     161020 J95  0.2+  0.5-
161019 G96  0.4+  1.2+    161020 926  0.2-  0.2-    161020 J95  0.0   0.1+
161019 G96  0.4+  0.1+    161020 926  0.0   0.3+    161020 J95  0.2-  0.4+

Ephemeris:
2016 UH                  a,e,i = 2.54, 0.60, 5                   q = 1.0221
Date    TT    R. A. (2000) Decl.     Delta      r     Elong.  Phase     V
2016 09 21    23 21 54.2 +16 26 25   0.2049  1.1997   161.2    15.7    23.1
...
2016 10 06    23 53 01.1 +20 41 06   0.1204  1.1133   159.5    18.3    21.9
...
2016 10 14    00 41 03.0 +24 04 05   0.08335 1.0769   161.9    16.7    21.0
...
2016 10 20    01 56 55.6 +26 31 31   0.06183 1.0551   163.3    15.7    20.2
2016 10 21    02 14 46.1 +26 41 11   0.05912 1.0519   162.4    16.7    20.2
2016 10 22    02 34 12.3 +26 41 27   0.05675 1.0489   160.8    18.2    20.1
...
2016 10 28    04 49 35.8 +21 50 56   0.05149 1.0341   141.1    37.1    20.4
...
2016 11 05    07 01 31.0 +09 14 28   0.06771 1.0234   116.4    60.2    21.7
...
2016 11 20    08 25 25.5 -01 41 43   0.1239  1.0320   107.5    66.0    23.2

A. U. Tomatic                (C) Copyright 2016 MPC           M.P.E.C. 2016-U27




More information about the Iaude mailing list